N8JLK-WX Weather Reports


Display with metric or nautical units.
time (UTC)temp
F
wind
direction
speed
MPH
gust
MPH
rain 1hr
in
rain 24hr
in
rain mn
in
humidity
%
barometer
mb
20260508064529 44 99 3.0 6.0 0.00 0.00 0.00 63 1013.7
20260508063526 44 102 2.0 4.0 0.00 0.00 0.00 63 1013.8
20260508062520 44 83 2.0 4.0 0.00 0.00 0.00 63 1013.9
20260508061516 44 93 2.0 4.0 0.00 0.00 0.00 63 1013.9
20260508060529 44 97 2.0 3.0 0.00 0.00 0.00 63 1014.0
20260508055524 44 122 2.0 3.0 0.00 0.00 0.00 63 1014.1
20260508054542 44 109 1.0 3.0 0.00 0.00 0.00 63 1014.2
20260508053517 44 106 2.0 2.0 0.00 0.00 0.00 63 1014.4
20260508052518 44 112 2.0 3.0 0.00 0.00 0.00 63 1014.5
20260508051532 44 113 1.0 3.0 0.00 0.00 0.00 62 1014.4
20260508050528 44 110 2.0 3.0 0.00 0.00 0.00 62 1014.4
20260508045525 44 84 2.0 3.0 0.00 0.00 0.00 62 1014.5
20260508044518 44 113 2.0 3.0 0.00 0.00 0.00 61 1014.5
20260508043531 44 111 1.0 3.0 0.00 0.00 0.00 61 1014.5
20260508042526 44 95 2.0 3.0 0.00 0.00 0.00 60 1014.5
20260508041522 44 87 2.0 3.0 0.00 0.00 0.00 60 1014.5
20260508040518 44 109 2.0 4.0 0.00 0.00 0.00 60 1014.6
20260508035539 43 105 2.0 5.0 0.00 0.00 0.00 60 1014.6
20260508034608 43 78 2.0 4.0 0.00 0.00 0.00 60 1014.7
20260508033600 42 100 2.0 5.0 0.00 0.00 0.00 60 1014.6
20260508032557 41 98 2.0 3.0 0.00 0.00 0.00 62 1014.6
20260508031517 40 105 2.0 3.0 0.00 0.00 0.00 62 1014.6
20260508030551 40 0.0 0.0 0.00 0.00 0.00 61 1014.6
20260508025526 40 0.0 0.0 0.00 0.00 0.00 61 1014.6
20260508024543 40 0.0 0.0 0.00 0.00 0.00 60 1014.5
20260508023517 40 0.0 0.0 0.00 0.00 0.00 60 1014.5
20260508022533 41 0.0 0.0 0.00 0.00 0.00 58 1014.5
20260508021528 41 0.0 0.0 0.00 0.00 0.00 57 1014.4
20260508020522 41 0.0 0.0 0.00 0.00 0.00 56 1014.4
20260508015520 42 0.0 0.0 0.00 0.00 0.00 55 1014.4
20260508014531 42 0.0 0.0 0.00 0.00 0.00 54 1014.3
20260508013527 43 0.0 0.0 0.00 0.00 0.00 53 1014.2
20260508012522 44 0.0 0.0 0.00 0.00 0.00 51 1014.2
20260508011558 44 0.0 0.0 0.00 0.00 0.00 49 1014.1
20260508010526 46 107 1.0 2.0 0.00 0.00 0.00 47 1014.1
20260508005528 46 0.0 0.0 0.00 0.00 0.00 44 1014.1
20260508004537 47 0.0 0.0 0.00 0.00 0.00 44 1014.2
20260508003518 48 118 1.0 3.0 0.00 0.00 0.00 43 1014.1
20260508002532 48 103 0.0 2.0 0.00 0.00 0.00 42 1013.9
20260508001548 49 89 2.0 3.0 0.00 0.00 0.00 42 1014.0
20260508000522 49 103 2.0 4.0 0.00 0.00 0.00 42 1013.9
20260507235517 50 95 2.0 3.0 0.00 0.00 0.00 41 1013.8
20260507234526 50 77 3.0 4.0 0.00 0.00 0.00 41 1013.8
20260507233527 50 81 2.0 3.0 0.00 0.00 0.00 41 1013.7
20260507232528 50 72 3.0 4.0 0.00 0.00 0.00 40 1013.7
20260507231524 51 84 3.0 4.0 0.00 0.00 0.00 40 1013.9
20260507230520 51 106 3.0 4.0 0.00 0.00 0.00 40 1013.9
20260507225533 51 65 3.0 6.0 0.00 0.00 0.00 40 1014.0
20260507224530 51 67 4.0 5.0 0.00 0.00 0.00 39 1013.9
20260507223605 51 71 3.0 4.0 0.00 0.00 0.00 39 1013.9
20260507222520 52 81 4.0 6.0 0.00 0.00 0.00 39 1014.0
20260507221535 52 78 3.0 4.0 0.00 0.00 0.00 38 1014.1
20260507220529 52 66 4.0 6.0 0.00 0.00 0.00 37 1014.0
20260507215546 53 67 3.0 5.0 0.00 0.00 0.00 40 1013.8
20260507214541 53 62 4.0 6.0 0.00 0.00 0.00 39 1013.8
20260507213528 53 78 4.0 6.0 0.00 0.00 0.00 41 1013.7
20260507212524 53 70 3.0 6.0 0.00 0.00 0.00 44 1013.7
20260507211519 53 78 3.0 5.0 0.00 0.00 0.00 44 1013.4
20260507210526 53 42 4.0 5.0 0.00 0.00 0.00 46 1013.4
20260507205523 53 78 2.0 4.0 0.00 0.00 0.00 47 1013.4
20260507204518 53 76 3.0 4.0 0.00 0.00 0.00 47 1013.3
20260507203520 53 59 4.0 5.0 0.00 0.00 0.00 46 1013.3
20260507202516 53 109 4.0 5.0 0.00 0.00 0.00 46 1013.3
20260507201550 55 92 3.0 5.0 0.00 0.00 0.00 44 1013.1
20260507200524 56 81 3.0 4.0 0.00 0.00 0.00 44 1013.1
20260507195540 57 84 1.0 2.0 0.00 0.00 0.00 44 1013.2
20260507194533 57 95 1.0 2.0 0.00 0.00 0.00 44 1013.3
20260507193529 57 87 2.0 2.0 0.00 0.00 0.00 43 1013.4
20260507192524 57 80 2.0 3.0 0.00 0.00 0.00 43 1013.4
20260507191520 57 56 2.0 3.0 0.00 0.00 0.00 44 1013.4
20260507190517 56 93 2.0 3.0 0.00 0.00 0.00 43 1013.4
20260507185530 56 76 3.0 4.0 0.00 0.00 0.00 43 1013.4
20260507184527 56 115 3.0 4.0 0.00 0.00 0.00 42 1013.6
20260507183520 56 112 2.0 4.0 0.00 0.00 0.00 41 1013.6
20260507182555 56 106 2.0 3.0 0.00 0.00 0.00 41 1013.7
20260507181529 57 86 2.0 4.0 0.00 0.00 0.00 40 1013.6
20260507180524 58 75 3.0 4.0 0.00 0.00 0.00 39 1013.6
20260507175521 58 89 2.0 4.0 0.00 0.00 0.00 39 1013.6
20260507174537 59 74 2.0 4.0 0.00 0.00 0.00 39 1013.7
20260507172525 60 74 2.0 4.0 0.00 0.00 0.00 37 1013.8
20260507171541 62 93 2.0 3.0 0.00 0.00 0.00 38 1013.9
20260507170536 62 72 3.0 4.0 0.00 0.00 0.00 40 1013.9
20260507165530 59 89 2.0 3.0 0.00 0.00 0.00 42 1013.9
20260507164520 58 94 2.0 3.0 0.00 0.00 0.00 40 1013.9
20260507163608 61 69 3.0 5.0 0.00 0.00 0.00 39 1013.8
20260507162523 61 93 3.0 4.0 0.00 0.00 0.00 40 1013.8
20260507161518 60 96 3.0 5.0 0.00 0.00 0.00 38 1013.9
20260507160519 62 98 2.0 4.0 0.00 0.00 0.00 36 1013.8
20260507155552 63 103 2.0 3.0 0.00 0.00 0.00 35 1013.8
20260507154547 64 89 3.0 5.0 0.00 0.00 0.00 33 1013.8
20260507153523 64 80 2.0 4.0 0.00 0.00 0.00 35 1013.9
20260507152518 64 89 2.0 4.0 0.00 0.00 0.00 34 1014.0
20260507151554 65 71 2.0 3.0 0.00 0.00 0.00 34 1013.9
20260507150529 67 82 2.0 3.0 0.00 0.00 0.00 36 1013.9
20260507145523 66 96 2.0 4.0 0.00 0.00 0.00 33 1014.0
20260507144521 66 90 1.0 3.0 0.00 0.00 0.00 35 1014.0
20260507143540 67 92 2.0 3.0 0.00 0.00 0.00 34 1014.0
20260507142515 66 74 2.0 4.0 0.00 0.00 0.00 35 1014.1
20260507141523 67 101 2.0 3.0 0.00 0.00 0.00 38 1014.2
20260507140518 67 108 1.0 2.0 0.00 0.00 0.00 40 1014.3
20260507135520 65 75 1.0 3.0 0.00 0.00 0.00 42 1014.4
20260507134533 64 96 2.0 5.0 0.00 0.00 0.00 44 1014.4
20260507133528 63 91 1.0 2.0 0.00 0.00 0.00 46 1014.4
20260507132523 61 66 1.0 3.0 0.00 0.00 0.00 50 1014.7
20260507131539 58 97 2.0 3.0 0.00 0.00 0.00 50 1014.6
20260507130533 56 97 1.0 2.0 0.00 0.00 0.00 52 1014.6
20260507125549 55 74 1.0 2.0 0.00 0.00 0.00 52 1014.6
20260507124523 54 95 1.0 2.0 0.00 0.00 0.00 54 1014.6
20260507123518 53 92 2.0 3.0 0.00 0.00 0.00 55 1014.5
20260507122518 53 95 2.0 3.0 0.00 0.00 0.00 56 1014.6
20260507121527 52 82 2.0 3.0 0.00 0.00 0.00 57 1014.3
20260507120521 51 168 2.0 4.0 0.00 0.00 0.00 59 1014.3
20260507115517 50 103 2.0 3.0 0.00 0.00 0.00 61 1014.3
20260507114518 49 65 2.0 3.0 0.00 0.00 0.00 66 1014.2
20260507113531 46 86 2.0 4.0 0.00 0.00 0.00 70 1014.3
20260507112526 43 128 1.0 3.0 0.00 0.00 0.00 75 1014.1
20260507111522 41 109 1.0 2.0 0.00 0.00 0.00 75 1014.2
20260507110517 40 111 1.0 3.0 0.00 0.00 0.00 74 1014.1
20260507105530 40 103 0.0 2.0 0.00 0.00 0.00 74 1014.0
20260507104528 40 113 1.0 2.0 0.00 0.00 0.00 74 1014.0
20260507103522 40 90 1.0 2.0 0.00 0.00 0.00 74 1013.9
20260507102543 40 0.0 0.0 0.00 0.00 0.00 73 1013.8
20260507101518 40 90 1.0 2.0 0.00 0.00 0.00 73 1013.9
20260507100525 40 100 1.0 2.0 0.00 0.00 0.00 73 1013.9
20260507095540 40 90 1.0 2.0 0.00 0.00 0.00 73 1013.9
20260507094536 40 97 1.0 3.0 0.00 0.00 0.00 73 1013.9
20260507093517 40 86 2.0 3.0 0.00 0.00 0.00 73 1013.8
20260507092552 40 109 2.0 3.0 0.00 0.00 0.00 73 1013.8
20260507091526 40 120 2.0 3.0 0.00 0.00 0.00 73 1013.9
20260507090522 40 92 2.0 3.0 0.00 0.00 0.00 73 1013.9
20260507085518 40 101 2.0 3.0 0.00 0.00 0.00 73 1013.9
20260507084532 39 107 1.0 2.0 0.00 0.00 0.00 75 1013.9
20260507083526 39 84 2.0 4.0 0.00 0.00 0.00 75 1014.1
20260507082528 39 101 1.0 3.0 0.00 0.00 0.00 76 1014.1
20260507081523 39 102 1.0 2.0 0.00 0.00 0.00 76 1014.2
20260507080518 39 100 2.0 2.0 0.00 0.00 0.00 76 1014.1
20260507075546 39 120 2.0 3.0 0.00 0.00 0.00 76 1014.1
20260507074521 39 128 2.0 2.0 0.00 0.00 0.00 77 1014.1
20260507073537 39 125 2.0 2.0 0.00 0.00 0.00 77 1014.2
20260507072518 39 88 3.0 4.0 0.00 0.00 0.00 78 1014.2
20260507071532 39 110 3.0 4.0 0.00 0.00 0.00 78 1014.2
20260507070526 39 105 3.0 4.0 0.00 0.00 0.00 79 1014.3
20260507065522 38 98 3.0 4.0 0.00 0.00 0.00 80 1014.4